Location: Fort Worth, Tx
(32.7431°N, 97.3695°W)
Time: 00:38:43
(UTC-04:00)

Vanguard 2 - Pass Details

Date: 23 February 2024
Orbit: 552 x 2916 km, 32.9° (Epoch: 24 April)

Event Time Altitude Azimuth Distance (km) Brightness Sun altitude
Rises 00:07:37 0° 273° (W) 5,597 12.3 -58.4°
Reaches altitude 10° 00:10:51 10° 273° (W) 4,848 11.8 -58.9°
Enters shadow 00:17:28 37° 274° (W) 3,531 10.8 -59.9°
